Content
SEND FEEDBACK

Daily
Averages
Monthly
Summary
Mexico

BACALAR, QUINTANA ROO


Home > North America > Mexico > Quintana Roo
Elevation: 7 feet     Latitude: 18 41N     Longitude: 088 23W

WEATHER
 
SELECT A DAY
Number of Records: 122,240;   Date Range: 1/1/95 - 7/30/14
 
SHARE

PRINT THIS DATA

[ ← Previous Day ]
WEATHER ALMANAC - OCTOBER 12, 2013
[ Next Day → ]
[ °C ]   °F
Weather ElementAverageHighLow
Temperature83.7 °F92 °F (12:50 pm)77 °F (5:40 am)
Dewpoint76.4 °F80.6 °F (1:40 pm)69.8 °F (5:40 am)
Humidity77 %92 % (6:50 am)54 % (3:45 pm)
Barometer29.91 in29.96 in (9:50 am)29.86 in (4:40 pm)
Wind Speed4 mph11.5 mph (2:40 pm)
Weather ElementAverage
Visibility6.5 mi
Wind DirectionENE (61.7 °)

Weather ElementTotal
Precipitation---
Cooling Degree Days19.5 (Base 65)
Growing Degree Days34.5 (Base 50)
Averaged from 24 records on October 12, 2013
WEATHER CONDITIONS BREAKOUT
WIND DIRECTION BREAKOUT
WEATHER BY HOUR - OCTOBER 12, 2013
[ °C ]   °F
Local TimeTemperatureDewpointHumidityBarometerVisibilityWind DirectionWind SpeedGust SpeedPrecipitationEventsConditions
12:45 AM82.0 °F76.0 °F76 %29.91 in5.0 miEast (90°)4.5 mphScattered Clouds
4:40 AM78.8 °F71.6 °F78 %29.87 in7.0 miCalmScattered Clouds
5:40 AM77.0 °F69.8 °F78 %29.88 in7.0 miCalmScattered Clouds
6:40 AM77.0 °F69.8 °F78 %29.92 in7.0 miCalmMostly Cloudy
6:50 AM78.0 °F76.0 °F92 %29.93 in6.0 miWNW (300°)4.5 mphRainRain
7:40 AM77.0 °F69.8 °F78 %29.92 in7.0 miCalmScattered Clouds
8:40 AM78.8 °F71.6 °F78 %29.94 in6.0 miCalmMostly Cloudy
9:40 AM80.6 °F73.4 °F79 %29.95 in6.0 miCalmMostly Cloudy
9:50 AM83.0 °F77.0 °F76 %29.96 in6.0 miEast (90°)4.5 mphRainLight Drizzle
11:10 AM84.2 °F77.0 °F79 %29.95 in7.0 miCalmMostly Cloudy
11:40 AM86.0 °F78.8 °F79 %29.94 in7.0 miCalmMostly Cloudy
12:44 PM86.0 °F78.8 °F79 %29.92 in7.0 miCalmMostly Cloudy
12:50 PM92.0 °F78.0 °F55 %29.93 in6.0 miEast (100°)4.5 mphPartly Cloudy
1:40 PM87.8 °F80.6 °F79 %29.89 in7.0 miCalmMostly Cloudy
2:40 PM87.8 °F80.6 °F79 %29.87 in7.0 miEast (100°)11.5 mphMostly Cloudy
3:40 PM87.8 °F80.6 °F79 %29.87 in7.0 miEast (100°)6.9 mphMostly Cloudy
3:45 PM92.0 °F77.0 °F54 %29.88 in6.0 miEast (90°)6.7 mphPartly Cloudy
4:40 PM86.0 °F78.8 °F79 %29.86 in7.0 miESE (120°)9.2 mphMostly Cloudy
5:40 PM86.0 °F78.8 °F79 %29.86 in7.0 miESE (120°)9.2 mphMostly Cloudy
6:42 PM84.2 °F80.6 °F89 %29.89 in6.0 miESE (120°)11.5 mphMostly Cloudy
6:50 PM85.0 °F78.0 °F74 %29.91 in6.0 miESE (110°)6.7 mphPartly Cloudy
7:40 PM84.2 °F77.0 °F79 %29.90 in7.0 miCalmMostly Cloudy
8:40 PM84.2 °F77.0 °F79 %29.93 in7.0 miENE (70°)9.2 mphMostly Cloudy
9:50 PM83.0 °F76.0 °F74 %29.96 in5.0 miENE (70°)6.7 mphPartly Cloudy
Hourly data recorded from MMCM, located miles away from Bacalar, Quintana Roo







STORIES FROM OUR PARTNERS